Wind_Speed
34 32 31 30 30 29 28 28 27 27 27 27 24 22 21 20 20 20 20 21 21 21 21 21 20 20 20 19 19 19 19 20 20 21 22 24 25 26 27 28 28 29 29 29 29 29 29 29 29 29 29 29 30 30 30 30 31 30 30 31 31 30 30
32 31 31 30 29 28 28 27 27 27 27 26 24 21 19 20 20 20 20 20 20 20 20 20 20 20 20 20 20 21 21 21 21 22 23 24 25 26 27 27 28 29 29 29 29 29 29 29 29 29 29 30 30 30 31 31 32 31 31 31 30 30 30
32 32 32 31 30 28 28 28 28 28 28 26 24 21 20 20 21 21 20 20 20 20 20 20 20 21 21 21 21 21 22 22 23 23 24 24 25 26 27 28 29 29 29 30 30 30 30 30 30 30 30 30 31 31 31 32 32 32 31 30 30 30 31
33 34 34 32 31 30 29 29 29 29 28 27 25 23 22 22 22 22 21 20 20 20 21 21 22 22 23 23 24 23 23 23 23 24 25 25 26 27 28 28 29 30 30 30 31 31 31 31 31 31 31 31 31 31 31 31 31 31 30 29 29 30 31
35 35 34 33 32 31 30 29 29 29 28 27 26 25 24 24 24 23 23 22 22 22 23 24 25 25 25 26 26 26 25 24 23 24 24 25 26 28 29 29 30 30 30 31 31 32 32 32 32 32 32 31 31 31 31 30 29 30 30 30 30 30 31
35 34 33 32 31 30 30 29 29 29 29 28 27 26 26 26 26 25 24 23 23 23 24 24 25 26 26 26 26 26 26 25 24 25 25 26 27 27 28 30 31 31 31 31 32 32 32 32 32 32 32 31 31 30 30 30 29 29 30 30 31 31 31
34 33 32 31 31 31 30 30 30 30 29 29 28 27 27 27 26 25 24 23 23 23 24 24 24 24 25 25 25 25 25 25 26 26 27 28 28 28 29 29 30 31 32 31 32 32 32 32 32 32 32 31 31 31 30 31 31 30 30 31 31 31 31
33 33 33 32 32 32 31 31 31 31 29 29 28 27 27 26 25 24 23 22 22 23 23 23 23 23 22 22 22 22 23 24 25 27 28 29 29 29 29 29 29 30 31 31 32 31 31 31 32 32 32 32 32 32 31 31 32 32 31 31 31 31 31
34 34 34 34 34 32 32 32 31 30 29 29 28 27 26 25 23 22 21 20 21 23 23 22 22 21 20 18 18 18 20 21 22 24 26 26 27 27 27 28 28 28 28 30 31 31 30 31 31 32 32 33 33 33 33 33 33 33 32 32 32 31 31
36 35 35 34 33 32 31 30 29 28 28 27 27 26 25 23 22 22 21 20 22 24 24 24 23 21 20 18 17 17 17 19 20 21 23 24 24 25 25 26 25 25 26 27 29 30 30 30 31 32 32 33 34 34 34 34 34 34 33 32 32 32 31
37 35 35 34 32 31 29 27 27 27 27 27 27 26 25 23 23 23 23 23 24 25 26 25 24 23 22 20 19 18 19 20 21 22 23 24 25 25 25 25 24 24 23 24 25 27 28 29 30 31 32 33 34 34 35 34 35 36 34 33 33 31 30
39 37 37 35 32 31 29 27 27 27 27 27 27 27 26 25 25 25 25 26 26 26 27 26 25 25 25 24 23 22 22 23 24 24 25 26 27 27 26 26 25 24 23 22 23 24 25 26 27 29 30 31 32 33 34 34 36 37 35 34 34 32 30
40 40 40 37 34 32 31 29 30 31 29 28 27 27 26 25 25 26 25 26 27 27 27 27 27 27 27 27 27 26 25 26 26 27 28 29 30 30 29 28 27 26 24 23 23 23 24 25 25 27 28 29 30 31 32 33 35 37 36 34 34 34 32
43 44 42 39 36 34 32 31 31 32 31 29 27 26 26 26 27 27 26 26 26 27 28 29 30 30 31 30 29 29 28 28 28 29 31 33 33 32 31 30 29 28 27 25 24 24 24 24 25 26 26 27 29 30 30 31 33 35 36 35 35 35 34
43 45 43 40 38 36 34 33 31 31 32 31 30 28 27 28 29 29 29 28 28 28 30 31 31 32 34 33 32 32 31 30 30 31 33 35 35 34 33 33 31 30 29 28 27 26 25 25 25 26 26 27 28 29 30 30 31 33 35 35 35 35 35
40 44 44 43 41 38 36 34 32 32 32 33 33 32 31 30 31 32 32 32 31 32 32 33 33 33 34 34 34 34 34 32 32 33 34 35 35 35 34 35 35 33 33 32 31 30 29 28 28 28 28 28 29 30 30 30 31 32 34 35 35 35 36
43 49 50 47 44 40 37 36 35 33 33 33 34 35 35 35 35 36 36 36 36 36 37 36 36 35 33 33 34 35 34 34 35 36 36 35 35 35 36 38 38 37 36 36 36 34 32 31 31 31 31 31 31 32 32 32 32 32 33 34 35 35 35
50 52 51 48 46 42 39 38 38 37 35 34 34 35 36 37 38 39 39 39 39 38 39 39 38 38 35 33 33 35 34 33 34 36 37 37 36 37 39 41 41 40 39 39 39 39 37 36 35 35 35 34 34 33 34 33 33 33 34 35 35 35 35
49 49 47 46 44 42 41 41 41 41 39 38 37 36 37 38 39 39 39 39 39 39 39 39 39 38 36 34 35 36 35 31 30 32 35 36 36 39 42 44 43 42 41 40 41 41 41 40 39 39 39 38 37 35 35 36 35 35 35 35 36 36 35
43 44 44 44 43 42 42 43 44 45 44 43 42 41 41 42 42 43 43 43 42 41 41 40 40 40 39 37 38 38 36 34 33 33 34 35 36 39 44 45 43 42 41 42 42 42 42 42 42 43 43 42 41 39 37 38 38 37 37 37 37 37 37
40 39 38 38 39 40 41 42 45 47 48 47 46 45 45 46 47 48 48 48 48 47 47 46 46 46 45 44 44 43 41 40 40 40 41 41 41 43 44 43 43 42 41 42 42 43 43 43 44 46 46 45 44 42 41 41 41 40 40 40 39 40 39
43 40 38 36 36 36 37 39 41 44 47 48 48 48 48 49 48 48 49 51 52 52 52 52 53 53 51 49 49 48 45 44 44 44 44 45 45 45 44 41 41 42 41 43 45 46 47 47 48 48 48 47 46 43 43 44 45 44 43 43 43 43 42
43 42 40 36 34 33 34 35 37 39 42 45 47 48 48 49 49 49 50 51 53 54 54 54 54 54 53 51 50 49 47 46 46 45 44 45 47 48 45 43 43 44 44 47 49 50 52 52 51 50 49 48 47 44 45 47 47 47 46 46 45 45 44
43 42 39 36 34 33 34 35 35 35 36 38 41 43 45 46 47 48 49 49 50 52 52 52 52 52 51 50 48 47 47 47 47 46 45 46 47 48 46 45 46 48 48 50 51 52 53 53 52 51 50 49 47 46 47 49 49 50 49 49 48 47 47
42 41 40 38 36 36 35 34 33 33 33 33 34 36 38 40 41 42 43 45 46 47 47 48 49 49 48 48 47 46 47 48 48 48 49 49 50 50 49 48 49 50 51 52 53 54 55 56 56 56 54 51 49 48 50 51 52 53 53 52 51 50 50
44 44 42 41 40 39 38 37 37 38 38 36 35 35 36 37 38 38 38 39 41 42 43 45 47 48 48 47 47 47 47 48 49 50 52 52 52 53 53 52 52 53 55 56 58 59 60 60 60 59 55 52 50 50 53 54 56 57 57 56 54 53 54
47 47 46 45 43 43 43 42 41 41 40 38 39 39 38 38 38 37 36 37 39 41 43 44 45 47 48 48 49 48 48 47 48 50 53 53 53 54 55 56 56 57 59 61 62 63 63 61 60 59 57 55 54 54 55 57 58 59 59 59 57 57 58
47 47 47 46 46 47 47 47 45 45 44 43 43 43 42 40 40 40 40 41 42 43 45 46 47 47 48 49 49 50 50 49 48 49 52 54 55 56 56 57 58 59 60 62 63 64 62 60 59 59 60 61 61 60 59 59 59 59 60 61 61 60 62
47 47 47 47 48 48 49 49 49 49 49 49 49 48 47 46 46 47 48 49 50 49 48 48 49 50 51 52 52 52 52 51 50 50 51 53 56 58 59 58 59 60 61 62 63 62 61 59 59 61 64 65 66 64 62 62 61 60 62 64 64 64 64
48 48 49 49 49 50 51 51 51 51 51 52 52 52 51 51 51 50 51 52 53 53 53 53 54 54 54 54 55 56 56 56 56 55 53 53 55 58 61 61 61 61 61 61 62 63 62 62 63 65 67 69 68 66 64 64 64 64 66 67 67 67 67
50 51 51 51 51 51 51 52 52 52 53 54 54 54 55 55 55 55 56 57 57 57 58 59 60 59 58 57 57 58 58 59 59 59 59 58 58 58 60 61 61 61 62 62 64 65 66 66 67 69 70 70 69 68 67 67 66 67 69 70 70 70 70
52 53 53 53 53 53 53 54 55 55 56 57 57 58 58 59 59 60 61 62 63 63 63 63 63 62 62 63 62 62 63 63 63 63 64 64 63 63 64 64 63 63 63 65 66 68 69 69 69 70 70 70 69 69 70 70 70 70 71 73 74 74 73
54 55 56 57 57 57 58 58 59 60 61 61 62 62 62 62 63 64 64 65 66 66 67 67 67 67 67 68 68 68 68 68 68 68 68 68 68 68 69 69 68 68 67 67 68 69 70 70 70 70 71 71 70 70 70 72 73 74 74 75 76 77 77
58 59 60 60 61 61 62 62 63 63 64 65 65 66 66 66 65 65 65 64 64 64 65 66 67 68 69 70 71 71 71 71 70 70 70 70 71 71 72 72 72 73 73 73 72 72 72 72 72 72 72 73 73 73 73 74 75 76 76 77 78 79 80
61 61 62 62 62 62 62 62 62 62 63 63 64 64 63 63 62 61 60 60 59 60 60 61 62 63 64 66 67 69 70 71 72 72 72 72 72 73 74 75 75 76 76 77 77 77 77 76 76 75 75 76 76 76 77 77 78 78 78 78 79 80 80
61 61 61 60 60 60 59 59 59 59 59 59 59 59 59 58 58 59 59 59 60 61 62 63 64 64 65 65 66 66 67 68 70 71 71 72 72 73 74 75 76 77 78 79 80 80 81 81 81 81 80 80 80 80 80 80 79 79 79 80 81 82 83
60 60 60 59 59 59 58 58 58 58 58 58 58 58 59 59 60 61 62 63 65 67 68 69 69 70 70 70 71 71 71 70 71 71 72 72 73 73 74 74 75 76 78 79 80 81 82 83 83 84 84 85 85 85 84 84 84 83 83 83 83 84 85
Wind_Direction
303 302 303 303 304 304 305 304 305 308 310 313 313 311 312 316 319 320 321 323 323 324 323 322 321 317 313 307 302 297 293 290 287 285 283 281 280 280 280 280 281 282 282 283 283 284 284 285 285 286 287 288 290 291 293 294 295 296 296 296 295 293 292
300 300 301 301 301 301 302 303 303 305 307 310 310 308 309 312 315 317 318 320 322 324 325 324 323 321 317 312 307 303 299 295 292 290 288 286 284 283 283 282 282 282 282 283 283 283 284 284 285 286 287 288 289 291 292 294 295 296 296 296 294 293 292
298 298 299 299 299 299 300 301 301 302 303 305 305 304 305 308 310 312 314 316 318 320 321 321 321 320 318 315 311 307 303 300 297 294 292 290 288 287 286 285 284 284 283 283 283 284 285 285 286 286 287 288 289 291 292 293 294 295 295 294 293 292 292
299 299 299 298 297 297 298 299 299 299 300 301 302 301 301 303 306 308 310 312 313 313 313 312 312 312 313 312 311 310 307 305 303 300 298 295 293 291 289 287 287 286 286 286 286 286 286 286 287 287 288 289 290 291 292 293 294 294 294 293 292 291 291
300 300 299 298 297 297 298 297 297 298 298 299 300 300 300 301 303 306 309 311 311 310 309 308 307 308 308 308 309 309 308 308 308 307 305 303 300 297 294 291 289 288 287 287 287 288 288 288 288 289 289 290 291 292 293 293 294 293 293 292 291 290 289
302 300 298 297 296 296 297 297 297 298 298 299 299 299 299 300 302 306 309 310 311 312 311 310 309 309 307 306 306 307 308 307 308 309 309 309 308 305 302 297 293 290 288 287 287 287 288 288 289 290 290 291 292 293 294 294 294 292 292 292 291 290 288
303 300 298 297 296 297 297 298 298 298 299 300 299 298 297 298 302 306 308 311 313 314 313 312 310 309 308 306 305 307 308 308 308 309 310 311 311 310 308 304 298 292 288 286 286 286 287 287 288 290 290 291 292 292 293 294 293 292 291 291 291 290 288
303 300 299 298 297 298 299 299 299 299 301 302 301 298 296 297 301 304 307 312 318 319 319 317 315 314 313 312 311 311 311 311 310 310 310 310 310 309 308 306 302 295 289 286 285 286 286 287 288 289 290 290 291 291 291 291 291 291 292 292 292 292 289
303 302 302 301 300 301 302 304 302 302 303 303 302 299 296 297 298 299 303 311 320 325 327 327 326 326 326 326 324 322 320 318 317 316 314 312 311 310 310 309 306 300 293 287 286 286 287 288 289 289 290 290 290 290 290 289 289 289 290 292 293 293 291
305 305 305 303 302 302 304 305 304 302 303 303 301 299 297 296 295 294 296 302 313 323 329 332 333 333 333 333 332 330 329 329 329 329 327 324 320 316 314 313 311 307 300 293 289 288 289 290 291 291 290 290 290 289 289 289 288 288 288 290 291 293 292
305 305 306 303 301 301 301 302 303 302 300 300 298 297 296 294 292 292 292 295 304 314 320 325 329 331 330 327 325 325 325 327 329 332 334 335 333 328 323 318 315 312 307 301 296 294 294 294 294 294 293 293 292 291 289 288 288 288 288 288 288 289 290
301 302 303 302 300 298 298 299 301 301 300 299 297 295 294 292 291 292 293 295 300 304 309 315 321 325 325 322 319 317 317 318 321 324 328 331 333 332 329 325 320 316 311 306 302 300 299 298 298 298 297 297 296 294 293 290 288 287 288 288 287 286 286
298 299 301 300 297 294 294 295 296 297 297 297 296 294 292 290 290 292 294 296 299 301 303 308 312 316 319 320 317 314 312 312 314 316 319 324 327 328 327 325 323 319 314 309 304 301 300 299 299 298 299 300 299 297 296 293 290 288 288 287 286 286 286
296 299 299 297 294 290 288 287 289 292 292 292 292 292 290 288 288 288 290 293 297 299 301 303 306 311 314 316 316 313 311 308 308 310 313 316 320 323 323 322 321 319 317 313 310 307 305 303 302 301 301 301 300 299 297 296 293 291 289 288 286 286 286
296 298 296 294 291 287 282 279 281 287 289 289 289 288 286 286 286 286 287 288 291 295 297 299 303 307 311 312 312 312 311 308 306 307 309 311 313 317 319 319 318 317 315 314 313 311 310 308 307 307 306 305 303 302 301 300 298 295 293 292 290 287 286
291 292 292 291 287 283 278 274 276 284 288 289 289 288 287 286 285 285 285 285 287 289 293 295 298 301 305 307 309 309 309 308 306 304 303 306 308 310 314 316 315 314 313 312 312 312 311 311 310 310 309 308 307 306 305 305 304 301 299 297 294 291 288
282 286 288 288 285 280 275 271 273 279 285 286 285 285 287 288 287 287 286 285 285 287 290 292 293 295 298 300 304 307 306 306 306 303 299 299 302 305 309 312 312 311 310 309 310 310 310 310 311 311 311 311 311 309 308 306 305 305 304 301 298 295 291
280 284 286 286 283 279 272 269 270 274 278 281 281 280 280 282 285 286 287 286 286 286 287 287 288 290 291 293 296 300 301 303 308 308 300 294 296 299 303 307 308 307 306 307 307 307 308 309 309 309 310 311 311 311 311 309 307 305 305 304 302 300 296
283 286 287 286 284 279 272 269 269 270 272 273 274 274 273 274 277 280 283 285 286 286 285 285 285 286 287 288 290 292 291 292 298 303 300 294 293 297 300 303 304 303 303 303 303 304 305 305 306 307 308 309 309 310 310 310 309 307 305 304 304 303 301
287 289 289 288 286 282 276 271 269 269 270 270 269 269 270 271 272 276 279 281 284 284 283 283 283 284 285 286 284 283 282 280 280 285 290 290 290 293 297 299 299 299 299 300 300 300 301 301 302 303 304 306 307 307 306 307 308 307 305 303 301 301 300
287 290 292 292 290 286 281 276 272 270 271 271 270 269 269 271 273 276 278 280 282 283 284 284 284 284 285 286 284 282 279 277 275 275 278 281 283 287 291 293 294 294 294 295 296 296 296 296 297 299 300 301 303 303 303 302 303 305 304 302 299 298 297
279 283 289 294 296 294 289 283 279 276 274 274 274 272 271 271 272 275 278 280 281 283 284 285 285 285 285 286 287 286 282 278 275 275 276 277 279 282 285 287 287 287 287 288 288 289 290 290 291 294 296 297 298 299 299 298 298 300 302 301 298 296 295
278 280 284 289 292 293 290 287 285 283 280 278 277 277 275 273 272 273 277 280 282 282 283 283 283 284 285 285 285 285 282 277 274 274 275 276 278 279 281 283 282 281 282 284 285 286 286 287 288 291 293 294 295 295 294 293 294 296 299 299 296 294 293
281 281 281 283 283 283 285 286 287 288 287 285 284 282 280 279 277 276 278 280 281 281 282 281 281 281 281 282 282 282 280 277 274 273 273 274 276 278 279 279 280 280 281 282 283 284 284 285 287 289 290 291 291 290 290 291 292 294 295 296 295 293 291
280 279 279 278 277 277 278 281 284 285 286 287 288 287 284 282 281 281 281 281 280 280 281 281 281 280 279 280 280 280 280 278 276 273 272 272 275 277 277 276 276 278 279 279 280 281 282 283 285 287 288 288 288 287 288 291 292 293 293 294 294 293 290
278 279 278 276 275 274 274 275 277 278 279 281 281 282 283 283 281 280 280 279 279 279 280 281 280 280 279 279 279 280 280 278 275 273 273 273 274 275 276 275 275 275 276 277 279 281 282 284 286 288 288 289 289 288 289 291 292 292 293 293 293 292 289
278 278 278 277 275 274 273 274 274 273 275 278 278 278 280 280 278 275 273 272 273 275 277 279 279 279 279 279 278 279 279 278 275 273 273 274 275 275 276 276 276 276 277 279 280 282 284 285 287 287 287 289 290 290 290 290 291 291 291 291 290 290 289
278 279 279 279 277 276 276 276 274 273 274 276 276 276 277 276 274 271 269 268 272 274 274 275 277 278 279 279 278 278 278 277 276 273 272 272 272 274 275 275 276 276 277 279 280 282 284 284 284 283 284 286 288 289 289 289 288 287 287 287 287 288 289
277 278 279 279 279 278 278 277 276 276 276 275 274 274 275 275 274 273 271 270 271 273 273 273 274 276 277 277 277 277 276 276 275 273 271 270 269 269 270 271 272 273 275 276 277 278 279 279 278 279 281 283 285 287 288 288 286 284 283 284 285 286 288
277 279 279 279 278 278 278 277 277 276 276 276 275 274 274 274 274 274 274 273 272 271 271 272 273 275 275 275 275 275 275 275 274 273 272 270 269 268 268 268 269 271 272 272 273 274 275 275 276 277 279 282 284 285 285 285 285 284 283 283 284 285 286
278 279 279 279 278 277 277 276 277 276 276 276 276 275 274 274 273 272 273 274 273 273 272 273 274 274 273 273 274 274 273 274 274 273 272 271 270 269 268 267 267 267 268 269 269 271 272 274 275 276 277 279 280 281 282 282 282 282 282 282 283 283 283
279 279 279 278 278 277 276 275 275 275 276 276 276 276 275 275 274 273 272 272 272 272 272 273 273 273 272 272 273 273 273 273 273 273 272 271 270 269 269 268 268 266 266 266 267 269 270 272 273 274 275 276 276 277 278 279 280 280 280 281 282 282 282
278 279 279 279 278 278 277 276 276 276 276 277 277 277 277 277 277 276 275 274 273 273 272 273 273 272 272 272 273 274 274 274 274 273 272 271 270 269 269 269 269 268 267 267 267 267 268 269 269 270 271 272 273 274 274 276 277 278 279 280 280 281 282
279 279 280 280 280 280 280 279 279 278 278 279 279 279 280 280 280 279 278 277 276 276 276 275 275 275 274 274 274 275 275 275 274 274 274 273 272 271 271 270 270 269 269 269 268 268 268 268 268 268 269 269 270 271 272 273 274 275 276 277 277 278 279
281 281 281 282 282 282 282 282 282 281 281 281 281 281 281 280 280 279 278 278 277 278 278 278 278 278 278 277 277 276 276 275 275 275 275 274 274 273 273 272 272 271 271 270 270 270 269 269 269 268 268 268 269 269 270 270 271 271 272 272 273 274 275
283 283 283 283 284 284 284 284 283 283 282 282 282 282 281 280 279 278 277 277 278 278 279 279 280 280 280 280 279 279 278 277 276 275 275 274 274 274 273 273 273 272 272 272 271 271 271 271 270 269 269 269 269 269 269 269 269 269 269 269 269 270 271
285 284 283 284 284 284 284 284 283 283 282 282 281 281 281 280 279 278 277 277 278 279 279 280 280 280 280 280 280 280 279 278 278 277 276 275 274 274 273 273 273 272 272 272 272 272 272 272 271 271 271 270 270 270 270 270 269 269 269 268 268 268 269
Height
10707 10705 10703 10701 10700 10698 10697 10695 10694 10693 10692 10690 10689 10688 10687 10686 10685 10683 10682 10681 10679 10678 10677 10676 10675 10674 10674 10673 10672 10671 10671 10670 10670 10669 10669 10668 10668 10668 10667 10667 10667 10667 10666 10666 10666 10666 10666 10666 10665 10665 10665 10664 10664 10663 10663 10662 10662 10661 10660 10660 10659 10658 10658
10705 10703 10701 10699 10698 10696 10695 10693 10692 10691 10690 10688 10687 10686 10685 10684 10683 10682 10681 10679 10678 10677 10676 10675 10674 10673 10672 10671 10670 10669 10668 10668 10667 10666 10666 10665 10665 10665 10664 10664 10663 10663 10663 10662 10662 10662 10662 10662 10662 10661 10661 10661 10660 10660 10659 10658 10658 10657 10657 10656 10655 10654 10654
10703 10701 10700 10698 10696 10695 10693 10691 10690 10689 10687 10686 10685 10684 10683 10682 10681 10680 10679 10678 10677 10675 10674 10673 10672 10671 10670 10669 10668 10668 10667 10666 10665 10664 10663 10663 10662 10662 10661 10661 10660 10660 10659 10659 10658 10658 10658 10658 10658 10658 10657 10657 10657 10656 10656 10655 10654 10653 10653 10652 10651 10651 10650
10701 10699 10698 10696 10694 10693 10691 10690 10688 10686 10685 10684 10683 10682 10681 10680 10679 10678 10677 10677 10675 10674 10673 10672 10670 10669 10668 10667 10666 10665 10665 10664 10663 10662 10661 10660 10660 10659 10658 10658 10657 10656 10656 10655 10654 10654 10654 10654 10654 10653 10653 10653 10652 10652 10651 10651 10650 10649 10648 10648 10648 10647 10646
10699 10698 10696 10695 10693 10691 10690 10688 10686 10685 10683 10682 10681 10680 10679 10678 10677 10676 10675 10675 10674 10673 10672 10670 10669 10668 10666 10665 10664 10663 10662 10661 10661 10660 10659 10658 10657 10656 10655 10654 10653 10653 10652 10651 10651 10650 10650 10650 10649 10649 10649 10649 10648 10648 10647 10647 10647 10645 10644 10644 10644 10643 10643
10698 10696 10695 10693 10691 10690 10688 10686 10684 10683 10681 10680 10679 10678 10677 10676 10675 10675 10674 10673 10672 10671 10670 10669 10668 10666 10665 10663 10662 10661 10660 10659 10658 10657 10656 10655 10654 10653 10652 10651 10650 10649 10648 10648 10647 10646 10646 10646 10645 10645 10645 10644 10644 10644 10643 10642 10642 10642 10641 10640 10640 10639 10638
10695 10694 10692 10691 10689 10688 10686 10684 10682 10681 10680 10678 10677 10676 10675 10674 10674 10673 10672 10671 10670 10669 10668 10667 10666 10665 10663 10662 10660 10659 10658 10657 10656 10655 10654 10653 10652 10651 10649 10648 10647 10646 10645 10644 10643 10643 10642 10642 10641 10641 10641 10640 10640 10639 10639 10638 10637 10637 10637 10636 10636 10635 10634
10692 10691 10690 10689 10687 10686 10684 10683 10681 10679 10678 10676 10675 10674 10673 10673 10672 10671 10670 10669 10668 10667 10666 10665 10663 10662 10661 10660 10658 10658 10657 10656 10654 10653 10652 10650 10649 10648 10647 10645 10644 10643 10642 10641 10640 10639 10639 10638 10638 10637 10637 10636 10636 10635 10635 10635 10634 10633 10632 10632 10631 10631 10630
10689 10688 10687 10687 10685 10684 10682 10681 10679 10678 10676 10675 10673 10672 10671 10671 10670 10670 10669 10668 10667 10666 10664 10663 10661 10660 10659 10658 10657 10656 10655 10654 10652 10651 10649 10648 10647 10645 10644 10642 10641 10639 10638 10637 10637 10636 10635 10635 10634 10633 10633 10632 10632 10631 10631 10630 10629 10629 10628 10627 10626 10626 10625
10687 10686 10685 10684 10683 10682 10681 10679 10677 10676 10674 10673 10672 10670 10670 10669 10668 10668 10667 10666 10665 10664 10663 10661 10660 10658 10657 10656 10655 10654 10653 10652 10651 10649 10648 10646 10644 10643 10641 10639 10638 10636 10635 10634 10634 10633 10633 10632 10631 10630 10629 10629 10628 10627 10627 10626 10625 10624 10624 10624 10622 10622 10620
10684 10683 10682 10682 10681 10680 10679 10677 10676 10674 10673 10671 10670 10669 10668 10667 10666 10666 10665 10664 10663 10662 10661 10660 10658 10657 10656 10654 10653 10652 10651 10650 10649 10647 10646 10644 10643 10641 10639 10637 10635 10634 10632 10632 10631 10630 10630 10629 10629 10627 10626 10625 10625 10624 10623 10622 10620 10619 10620 10620 10618 10618 10617
10682 10681 10680 10679 10678 10677 10676 10675 10674 10672 10671 10670 10668 10667 10666 10665 10664 10664 10663 10662 10661 10660 10659 10658 10656 10655 10654 10653 10652 10650 10649 10648 10646 10645 10644 10642 10641 10639 10637 10636 10634 10632 10631 10630 10629 10628 10627 10627 10626 10625 10623 10622 10621 10620 10619 10618 10616 10615 10615 10615 10614 10614 10614
10680 10679 10678 10676 10676 10675 10674 10673 10672 10671 10669 10668 10666 10665 10664 10663 10662 10661 10660 10660 10659 10657 10656 10655 10654 10653 10652 10651 10649 10648 10647 10645 10644 10642 10641 10640 10638 10637 10635 10634 10632 10630 10629 10628 10627 10626 10625 10624 10623 10622 10620 10619 10618 10617 10616 10615 10613 10611 10611 10611 10610 10609 10609
10678 10677 10675 10674 10673 10673 10672 10671 10670 10668 10667 10665 10664 10663 10662 10660 10660 10659 10658 10657 10656 10655 10653 10652 10651 10650 10649 10648 10647 10645 10644 10643 10641 10640 10638 10637 10636 10634 10633 10631 10630 10628 10627 10625 10624 10623 10622 10621 10620 10619 10618 10616 10614 10613 10612 10611 10609 10607 10605 10606 10606 10604 10604
10678 10676 10673 10671 10670 10670 10670 10668 10667 10665 10664 10662 10661 10660 10659 10658 10657 10656 10655 10654 10653 10652 10650 10649 10647 10646 10645 10644 10643 10642 10641 10639 10638 10637 10635 10634 10632 10631 10629 10628 10627 10626 10624 10623 10622 10620 10619 10618 10617 10615 10614 10613 10611 10609 10608 10607 10606 10603 10601 10601 10601 10600 10599
10681 10675 10671 10669 10667 10667 10666 10665 10664 10663 10661 10659 10658 10657 10656 10655 10654 10653 10652 10651 10650 10649 10648 10646 10645 10643 10642 10641 10640 10638 10637 10636 10634 10633 10631 10630 10629 10627 10626 10624 10624 10623 10621 10619 10618 10617 10616 10614 10613 10612 10610 10609 10608 10606 10605 10603 10602 10600 10598 10596 10596 10595 10594
10679 10673 10668 10665 10663 10663 10662 10662 10661 10659 10658 10656 10655 10653 10652 10651 10650 10649 10648 10647 10646 10645 10644 10643 10641 10640 10638 10637 10636 10635 10634 10632 10631 10629 10627 10626 10624 10623 10622 10620 10619 10619 10617 10615 10614 10613 10612 10611 10609 10608 10606 10605 10604 10602 10601 10600 10598 10596 10594 10592 10591 10590 10589
10672 10668 10664 10661 10659 10658 10657 10657 10656 10655 10654 10653 10652 10650 10649 10648 10647 10645 10644 10643 10642 10641 10640 10639 10637 10636 10635 10634 10632 10631 10630 10629 10627 10625 10623 10622 10620 10619 10618 10617 10615 10614 10613 10612 10609 10608 10607 10607 10605 10604 10602 10601 10600 10599 10597 10595 10594 10593 10591 10588 10586 10586 10585
10664 10662 10659 10656 10655 10653 10652 10651 10651 10649 10648 10648 10647 10647 10646 10645 10643 10642 10640 10639 10638 10637 10635 10634 10633 10632 10631 10630 10628 10627 10626 10625 10624 10622 10620 10618 10616 10614 10613 10613 10611 10610 10608 10607 10605 10603 10602 10602 10601 10600 10598 10597 10596 10595 10593 10591 10590 10589 10587 10585 10583 10581 10580
10658 10656 10653 10651 10650 10648 10647 10646 10645 10644 10643 10642 10642 10641 10641 10640 10638 10637 10636 10635 10633 10632 10631 10630 10628 10627 10626 10625 10624 10622 10621 10620 10619 10618 10616 10614 10612 10610 10609 10608 10607 10605 10604 10602 10601 10599 10598 10597 10596 10595 10594 10593 10591 10591 10589 10587 10585 10584 10583 10581 10579 10577 10576
10653 10651 10649 10647 10645 10643 10641 10640 10640 10639 10638 10637 10636 10636 10635 10635 10634 10632 10630 10629 10628 10627 10626 10625 10623 10621 10621 10620 10618 10616 10616 10615 10614 10613 10611 10609 10608 10606 10605 10604 10603 10601 10600 10598 10596 10594 10593 10592 10591 10590 10588 10588 10587 10585 10584 10582 10581 10579 10578 10576 10575 10573 10572
10649 10647 10645 10643 10640 10638 10636 10634 10633 10633 10632 10631 10630 10630 10630 10630 10629 10627 10625 10623 10622 10621 10620 10618 10616 10615 10615 10614 10612 10610 10611 10610 10608 10607 10605 10604 10602 10601 10600 10599 10598 10597 10595 10593 10591 10589 10588 10587 10586 10585 10583 10582 10582 10580 10578 10577 10575 10574 10573 10572 10570 10568 10567
10644 10642 10640 10638 10636 10633 10631 10629 10628 10627 10626 10625 10624 10624 10624 10624 10624 10623 10621 10618 10615 10614 10614 10612 10610 10609 10608 10608 10606 10605 10604 10604 10602 10601 10599 10598 10596 10595 10594 10593 10592 10591 10590 10588 10586 10584 10583 10581 10581 10580 10578 10577 10576 10574 10573 10571 10570 10569 10568 10567 10565 10563 10561
10638 10637 10635 10634 10631 10628 10627 10625 10624 10623 10622 10620 10618 10618 10617 10617 10617 10617 10615 10613 10609 10607 10605 10604 10603 10603 10602 10601 10600 10599 10598 10597 10596 10595 10594 10592 10590 10589 10588 10587 10585 10584 10583 10581 10580 10578 10577 10575 10574 10574 10573 10571 10570 10568 10567 10565 10564 10563 10562 10561 10559 10557 10556
10633 10632 10630 10629 10627 10625 10623 10622 10621 10619 10617 10615 10614 10613 10612 10611 10611 10611 10608 10606 10603 10601 10599 10597 10596 10596 10595 10595 10594 10593 10592 10591 10590 10589 10588 10587 10585 10583 10581 10580 10579 10577 10576 10574 10573 10571 10570 10568 10567 10567 10566 10565 10563 10562 10560 10559 10558 10556 10555 10554 10553 10551 10549
10627 10626 10625 10625 10623 10621 10619 10618 10617 10615 10614 10612 10610 10609 10607 10605 10605 10605 10603 10600 10597 10594 10593 10592 10591 10590 10590 10589 10588 10587 10586 10584 10583 10582 10581 10580 10579 10577 10574 10573 10572 10571 10569 10567 10566 10564 10563 10562 10560 10559 10558 10557 10556 10555 10553 10552 10551 10549 10547 10547 10547 10545 10540
10622 10621 10620 10619 10618 10615 10613 10613 10612 10611 10609 10608 10606 10604 10602 10600 10599 10599 10598 10596 10592 10589 10588 10588 10586 10585 10584 10583 10582 10581 10579 10578 10577 10575 10574 10573 10571 10569 10567 10566 10565 10564 10562 10560 10558 10557 10556 10555 10554 10553 10551 10549 10549 10548 10547 10545 10543 10542 10540 10539 10539 10537 10532
10617 10615 10614 10614 10612 10610 10608 10607 10606 10605 10604 10603 10601 10599 10597 10595 10594 10593 10592 10590 10587 10585 10583 10582 10580 10579 10578 10577 10576 10574 10572 10571 10570 10569 10567 10566 10564 10562 10561 10559 10558 10556 10555 10553 10550 10549 10548 10547 10547 10546 10544 10543 10541 10541 10540 10538 10536 10535 10533 10530 10530 10529 10526
10612 10610 10609 10608 10606 10604 10602 10601 10600 10600 10597 10596 10595 10593 10591 10589 10587 10586 10585 10583 10581 10579 10577 10575 10574 10573 10572 10570 10569 10567 10566 10565 10563 10562 10560 10559 10557 10555 10554 10553 10550 10549 10547 10545 10543 10542 10542 10541 10539 10538 10537 10536 10534 10534 10533 10529 10527 10527 10525 10521 10521 10521 10519
10607 10606 10604 10603 10601 10599 10597 10595 10594 10593 10591 10589 10588 10587 10585 10583 10581 10579 10577 10575 10574 10572 10570 10569 10567 10565 10564 10563 10561 10560 10558 10557 10556 10555 10553 10552 10550 10547 10545 10544 10543 10541 10539 10538 10535 10534 10534 10534 10532 10530 10529 10528 10526 10526 10525 10521 10518 10517 10515 10513 10513 10512 10511
10601 10600 10598 10597 10595 10594 10592 10589 10587 10586 10584 10582 10581 10579 10578 10576 10574 10572 10570 10568 10567 10565 10563 10561 10560 10558 10556 10555 10553 10552 10551 10549 10547 10546 10545 10544 10542 10539 10536 10535 10535 10534 10532 10530 10528 10526 10525 10525 10524 10522 10520 10520 10518 10517 10516 10514 10511 10509 10506 10503 10503 10502 10502
10594 10593 10591 10589 10588 10587 10585 10583 10581 10579 10576 10575 10573 10571 10570 10568 10566 10564 10563 10561 10559 10557 10556 10554 10552 10551 10549 10547 10545 10544 10542 10541 10539 10538 10537 10536 10533 10530 10527 10526 10526 10525 10524 10522 10521 10519 10517 10517 10516 10513 10511 10510 10510 10508 10506 10505 10503 10501 10498 10495 10493 10491 10491
10587 10585 10583 10582 10580 10579 10577 10575 10573 10571 10569 10567 10565 10563 10561 10560 10557 10555 10554 10552 10550 10549 10547 10546 10544 10543 10541 10539 10537 10535 10534 10532 10530 10529 10528 10526 10524 10522 10519 10518 10517 10515 10514 10513 10512 10510 10509 10508 10507 10505 10502 10501 10500 10499 10498 10496 10494 10492 10489 10487 10484 10481 10480
10580 10578 10576 10574 10572 10570 10568 10567 10564 10563 10561 10558 10556 10554 10552 10550 10548 10546 10544 10542 10541 10539 10538 10536 10535 10533 10532 10530 10528 10526 10524 10523 10521 10519 10518 10516 10515 10512 10510 10509 10507 10506 10504 10503 10502 10501 10499 10498 10497 10496 10494 10492 10490 10489 10488 10487 10485 10482 10480 10478 10475 10472 10470
10572 10570 10568 10566 10564 10562 10560 10558 10556 10554 10552 10549 10547 10545 10543 10541 10539 10537 10535 10533 10531 10530 10528 10527 10525 10523 10522 10520 10518 10516 10514 10513 10511 10510 10508 10506 10505 10503 10501 10499 10497 10496 10494 10493 10491 10490 10489 10487 10486 10485 10484 10482 10480 10479 10478 10477 10475 10473 10471 10469 10467 10464 10461
10563 10561 10559 10558 10556 10553 10551 10549 10547 10545 10543 10541 10539 10536 10534 10532 10530 10528 10526 10524 10522 10520 10519 10517 10515 10513 10512 10510 10508 10506 10504 10503 10501 10499 10498 10497 10495 10493 10491 10489 10487 10486 10484 10482 10481 10479 10478 10476 10475 10473 10472 10471 10469 10468 10467 10466 10464 10462 10461 10459 10457 10455 10453
10555 10553 10551 10549 10547 10545 10543 10540 10538 10536 10534 10533 10531 10528 10525 10523 10521 10519 10517 10515 10513 10510 10508 10506 10504 10502 10501 10499 10497 10496 10494 10492 10491 10489 10487 10486 10484 10483 10481 10479 10477 10475 10473 10471 10469 10468 10466 10464 10463 10461 10460 10458 10457 10456 10455 10454 10453 10451 10450 10448 10446 10444 10442